Погода в Николаевке

Россия / Кемеровская область (Кузбасс)     53°29′00″N   87°09′53″E
темп.,
°C
ветер,
м/с
пор.,
м/с
влажн.,
%
обл.,
%
осадки,
мм/ч
давл.,
гПа
погр.,
м
5 марта, пт
пт501:00−9юв1279100 0.0 102121
04:00−10юв1278100 0.0 102021
07:00−12юв128071 0.0 101821
10:00−7ююв1284100 0.0 101694
13:00−3ююз51082100 0.0 1015583
16:00−2юз81593100 0.8 10161382
19:00−2зюз71680100 1.3 10221475
22:00−5ююз4148797 0.0 1023941
6 марта, сб
сб601:00−4юз5188198 0.0 10241299
04:00−4ююз51784100 0.0 10231431
07:00−5ююз51782100 0.0 10231224
10:00−4юз61775100 0.0 10221248
13:00−2юз51571100 0.0 10201305
16:00−1юз51568100 0.0 10171482
19:00−4ю31081100 0.0 1016345
22:00−4ю31585100 0.0 1016951
7 марта, вс
вс701:00−5ююз31588100 0.0 1016879
04:00−5ю31489100 0.0 1015667
07:00−5ююз41486100 0.0 1016811
10:00−4юз51292100 0.1 1017852
13:00−2юз5994100 0.9 1018820
16:00−2зюз4895100 1.1 1020738
19:00−3зюз3796100 2.1 1022404
22:00−7юз229797 0.1 102522
8 марта, пн
пн801:00−10ю119890 0.1 102621
04:00−11вюв119778 0.0 102521
07:00−10в119588 0.0 102421
10:00−5вюв1291100 0.0 1020128
13:000юв1397100 0.0 1016280
16:00+1ююв14100100 0.0 1014255
19:000ю3696100 0.0 1012334
22:00−2ю31588100 0.0 1013923
9 марта, вт
вт901:00−1юз5158892 0.0 1014985
04:000юз6149499 0.4 10171202
07:00−5зюз4118799 1.1 1022587
10:00−8юз388983 0.0 1025476
13:00−5юз477992 0.0 1027801
16:00−4юз357643 0.0 1027799
19:00−8ююз128627 0.0 102721
22:00−10юв118858 0.0 102621